Regional Weather Roundup
Issued by NWS Sioux Falls, SD

Home | Current Version | Previous Version | Graphics & Text | Print | Product List | Glossary Off
Versions: 1 2 3 4 5 6 7 8 9 10 11 12 13 14 15 16 17 18 19 20 21 22 23 24 25 26 27 28 29 30 31 32 33 34 35 36 37 38 39 40 41 42 43 44 45 46 47 48 49 50

000
ASUS43 KFSD 111410
RWRFSD

WEATHER ROUNDUP FOR SE SOUTH DAKOTA/SW MINNESOTA/NW IOWA
NATIONAL WEATHER SERVICE SIOUX FALLS SD
800 AM CST MON DEC 11 2017

NOTE: "FAIR" INDICATES FEW OR NO CLOUDS BELOW 12,000 FEET WITH NO
SIGNIFICANT WEATHER AND OR OBSTRUCTIONS TO VISIBILITY.


SDZ038>040-050-052>070-111500-
SOUTHEAST SOUTH DAKOTA

CITY           SKY/WX    TMP DP  RH WIND       PRES   REMARKS
BROOKINGS      LGT RAIN  36  33  89 NW23G29   29.82R
CHAMBERLAIN    CLOUDY    44  31  60 NW26G40   30.03R
HURON          CLOUDY    41  33  73 NW31G43   29.93R
MADISON        CLOUDY    37  37 100 NW30G38   29.85R
MITCHELL       CLOUDY    43  32  65 NW30G41   29.95R
SIOUX FALLS    LGT RAIN  40  32  73 NW30G39   29.85R
WINNER         CLOUDY    45  27  49 NW37G44   30.07S
YANKTON        MOCLDY    43  28  55 W31G39    29.94R
$$

MNZ071-072-080-081-089-090-097-098-111500-
SOUTHWEST MINNESOTA

CITY           SKY/WX    TMP DP  RH WIND       PRES   REMARKS
FAIRMONT       CLOUDY    36  27  69 NW14      29.73S
JACKSON        CLOUDY    36  30  80 MISG      29.75R
LUVERNE        CLOUDY    36  28  75 NW20G25   29.83R
MARSHALL       CLOUDY    37  33  85 NW23      29.78R
MONTEVIDEO     CLOUDY    37  34  87 N17G23    29.77R
PIPESTONE      LGT RAIN  36  30  80 NW17G24   29.80R
REDWOOD FALLS  CLOUDY    39  31  72 NW17G26   29.74R
TRACY          CLOUDY    37  33  87 NW16G22   29.77R
WINDOM         DRIZZLE   36  25  64 NW21G31   29.75R
WORTHINGTON    CLOUDY    35  31  85 W22       29.79R WCI  23
$$

IAZ001>003-012>014-020>022-031-032-NEZ013-014-SDZ071-111500-
NORTHWEST IOWA

CITY           SKY/WX    TMP DP  RH WIND       PRES   REMARKS
CHEROKEE       PTCLDY    38  28  66 NW16G30   29.84R
DENISON        CLEAR     41  25  52 NW20G33   29.87R
ESTHERVILLE    CLOUDY    35  27  72 NW22      29.74S WCI  23
LE MARS        CLOUDY    41  28  60 NW17G24   29.87S
ORANGE CITY    CLOUDY    39  30  70 NW18G24   29.85R
SHELDON        CLOUDY    37  30  75 NW18G26   29.81S
SIOUX CITY     MOCLDY    43  26  51 NW29G40   29.89R
SPENCER        LGT RAIN  36  32  85 NW29G40   29.79R
STORM LAKE     PTCLDY    37  27  65 NW26G37   29.81R
$$

ABBREVIATIONS USED IN REMARKS
   TC - TEMPERATURE IN CELSIUS
  WCI - WIND CHILL INDEX
   HX - HEAT INDEX
  VSB - VISIBILITY





USA.gov is the U.S. government's official web portal to all federal, state and local government web resources and services.